Terug naar catalogus

STARLINK-6054

ActiefCommunicatieVLEO
NORAD 56465·PAYLOAD·🇺🇸 United States

Gelanceerd May 10, 2023 vanaf Vandenberg Space Force Base

Loading…

Volgende Passages (komende 24 uur)

TLE

VersSource: CelesTrak SupGP

Epoch: Sep 15, 2026, 02:14 UTC

1 56465C 23064T   26258.09354167  .00066716  00000+0  55893-2 0  2584
2 56465  70.0017 346.7456 0003598 265.7220 198.0307 14.98308090    18

Volg STARLINK-6054 in realtime met AllMySat

Download on the App Store